Location: Contre
(49.7477°N, 2.0963°E)
Time: 23:32:29
(UTC+00:00)

Envisat - Pass Details

Date: 07 March 2024
Orbit: 762 x 764 km, 98.3° (Epoch: 12 April)

Event Time Altitude Azimuth Distance (km) Brightness Sun altitude
Rises 03:14:09 0° 16° (NNE) 3,242 6.9 -30.0°
Reaches altitude 10° 03:16:29 10° 19° (NNE) 2,311 6.0 -29.7°
Enters shadow 03:21:19 67° 83° (E) 829 3.2 -29.0°
